[TLELIST] Archives

 

[list_settings.list_name] Current TLEs

July 8th 2008 PST

HST 1 20580U 90037B 08188.43456338 +.00000263 +00000-0 +74716-5 0 01886 2 20580 028.4687 197.6864 0003738 224.6048 135.4240 15.00391151797873 ISS (ZARYA) 1 25544U 98067A 08189.79148384 .00006207 00000-0 45070-4 0 8118 2 25544 051.6409 270.4184 0008974 345.8568 110.1273 15.74964658551775 CXO 1 25867U 99040B 08188.75000000 +.00000131 +00000-0 +10000-3 0 02191 2 25867 063.8586 079.8991 6871430 278.6918 001.4144 00.37805788003709 ____________________________________________________________________ These 2-Line ...Continue Reading

[list_settings.list_name] Current TLEs

July 7th 2008 PST

HST 1 20580U 90037B 08189.23278502 .00000243 00000-0 58945-5 0 1727 2 20580 028.4684 192.4813 0003711 233.2692 126.7554 15.00391109797996 ISS (ZARYA) 1 25544U 98067A 08188.72005378 .00004834 00000-0 36081-4 0 8054 2 25544 051.6414 275.9279 0009028 342.1775 154.8507 15.74944895551605 CXO 1 25867U 99040B 08188.75000000 +.00000131 +00000-0 +10000-3 0 02191 2 25867 063.8586 079.8991 6871430 278.6918 001.4144 00.37805788003709 ____________________________________________________________________ These 2-Line ...Continue Reading

[list_settings.list_name] Current TLEs

July 6th 2008 PST

HST 1 20580U 90037B 08186.50552881 +.00000285 +00000-0 +91958-5 0 01760 2 20580 028.4692 210.2688 0003790 204.4307 155.6102 15.00390956797588 ISS (ZARYA) 1 25544U 98067A 08186.87400661 .00006499 00000-0 47055-4 0 7941 2 25544 051.6413 285.4198 0008946 333.6627 129.6621 15.74930425551318 CXO 1 25867U 99040B 08186.04166667 +.00000115 +00000-0 +10000-3 0 02184 2 25867 063.8553 080.0007 6864360 278.7286 352.6724 00.37799603003699 ____________________________________________________________________ These 2-Line ...Continue Reading

[list_settings.list_name] Current TLEs

July 5th 2008 PST

HST 1 20580U 90037B 08186.23945510 .00000285 00000-0 92029-5 0 1709 2 20580 028.4691 212.0038 0003784 201.5463 158.4964 15.00390886797545 ISS (ZARYA) 1 25544U 98067A 08186.87400661 .00006499 00000-0 47055-4 0 7941 2 25544 051.6413 285.4198 0008946 333.6627 129.6621 15.74930425551318 CXO 1 25867U 99040B 08186.04166667 +.00000115 +00000-0 +10000-3 0 02184 2 25867 063.8553 080.0007 6864360 278.7286 352.6724 00.37799603003699 ____________________________________________________________________ These 2-Line ...Continue Reading

[list_settings.list_name] Current TLEs

July 4th 2008 PST

HST 1 20580U 90037B 08186.23945510 .00000285 00000-0 92029-5 0 1709 2 20580 028.4691 212.0038 0003784 201.5463 158.4964 15.00390886797545 ISS (ZARYA) 1 25544U 98067A 08185.54252005 .00009588 00000-0 67390-4 0 7857 2 25544 051.6399 292.2653 0008498 328.8724 140.2343 15.74921874551104 CXO 1 25867U 99040B 08186.04166667 +.00000115 +00000-0 +10000-3 0 02184 2 25867 063.8553 080.0007 6864360 278.7286 352.6724 00.37799603003699 ____________________________________________________________________ These 2-Line ...Continue Reading

[list_settings.list_name] Current TLEs

July 3rd 2008 PST

HST 1 20580U 90037B 08184.50997587 .00000285 00000-0 91690-5 0 1699 2 20580 028.4693 223.2820 0003796 183.6672 176.3889 15.00390484797285 ISS (ZARYA) 1 25544U 98067A 08184.84158799 .00010483 00000-0 73297-4 0 7808 2 25544 051.6415 295.8710 0008737 325.0011 127.3655 15.74911835550994 CXO 1 25867U 99040B 08183.41666667 +.00000157 +00000-0 +10000-3 0 02172 2 25867 063.8482 080.0588 6858166 278.8098 355.2197 00.37796031003687 ____________________________________________________________________ These 2-Line ...Continue Reading

[list_settings.list_name] Current TLEs

July 2nd 2008 PST

HST 1 20580U 90037B 08182.58094180 +.00000269 +00000-0 +78986-5 0 01811 2 20580 028.4696 235.8704 0003866 165.6244 194.4457 15.00390006796990 ISS (ZARYA) 1 25544U 98067A 08184.12756944 .00011067 00000-0 77175-4 0 7768 2 25544 051.6413 299.5415 0008747 322.0920 039.3120 15.74898395550884 CXO 1 25867U 99040B 08183.41666667 +.00000157 +00000-0 +10000-3 0 02172 2 25867 063.8482 080.0588 6858166 278.8098 355.2197 00.37796031003687 ____________________________________________________________________ These 2-Line ...Continue Reading

[list_settings.list_name] Current TLEs

July 1st 2008 PST

HST 1 20580U 90037B 08183.24612533 .00000279 00000-0 86814-5 0 1688 2 20580 028.4697 231.5255 0003849 171.8057 188.2594 15.00390170797094 ISS (ZARYA) 1 25544U 98067A 08183.11092593 .00011608 00000-0 80816-4 0 7700 2 25544 051.6412 304.7692 0008642 317.5779 035.9890 15.74876736550717 CXO 1 25867U 99040B 08180.79166667 +.00000296 +00000-0 +10000-3 0 02168 2 25867 063.8288 080.1568 6857604 278.8433 357.8237 00.37807083003671 ____________________________________________________________________ These 2-Line ...Continue Reading

[list_settings.list_name] Current TLEs

June 30th 2008 PST

HST 1 20580U 90037B 08181.58316458 .00000284 00000-0 91310-5 0 1672 2 20580 028.4697 242.3775 0003866 155.3684 204.7089 15.00389923796842 ISS (ZARYA) 1 25544U 98067A 08181.85788352 .00012775 00000-0 88602-4 0 7622 2 25544 051.6412 311.2121 0008538 312.2467 132.4100 15.74850066550521 CXO 1 25867U 99040B 08180.79166667 +.00000296 +00000-0 +10000-3 0 02168 2 25867 063.8288 080.1568 6857604 278.8433 357.8237 00.37807083003671 ____________________________________________________________________ These 2-Line ...Continue Reading

[list_settings.list_name] Current TLEs

June 29th 2008 PST

HST 1 20580U 90037B 08180.51886884 .00000285 00000-0 91592-5 0 1661 2 20580 028.4698 249.3185 0003839 144.7311 215.3533 15.00389679796686 ISS (ZARYA) 1 25544U 98067A 08180.85180269 .00012887 00000-0 89437-4 0 7568 2 25544 051.6417 316.3841 0008472 308.5639 188.3622 15.74824083550368 CXO 1 25867U 99040B 08180.79166667 +.00000296 +00000-0 +10000-3 0 02168 2 25867 063.8288 080.1568 6857604 278.8433 357.8237 00.37807083003671 ____________________________________________________________________ These 2-Line ...Continue Reading
  • This mailing list is a public mailing list - anyone may join or leave, at any time.
  • This mailing list is announce-only.

International Space Station (ISS) / Hubble Space Telescope (HST) / Chandra X-Ray Observatory Orbital Data via EMAIL

Privacy Policy:

Private list